Location: Newark
(46.7000°N, 60.6000°W)
Time: 02:09:29
(UTC+00:00)

SR - Pass Details

Date: 29 October 2020
Orbit: 579 x 876 km, 66.7° (Epoch: 30 November)

Event Time Altitude Azimuth Distance (km) Brightness Sun altitude
Exits shadow 08:29:22 11° 348° (NNW) 1,930 ? -23.0°
Drops below altitude 10° 08:29:54 10° 355° (N) 2,004 ? -22.9°
Sets 08:33:46 0° 27° (NNE) 2,984 ? -22.3°
